Location: Beaver Brook Station
(42.3793°N, 71.2203°W)
Time: 06:22:38
(UTC+00:00)

S3M - Pass Details

Date: 29 October 2020
Orbit: 950 x 1003 km, 83.0° (Epoch: 23 November)

Event Time Altitude Azimuth Distance (km) Brightness Sun altitude
Rises 22:26:12 0° 162° (SSE) 3,608 6.9 -8.8°
Reaches altitude 10° 22:28:50 10° 154° (SSE) 2,669 6.1 -9.3°
Maximum altitude 22:34:23 38° 88° (E) 1,413 4.4 -10.3°
Drops below altitude 10° 22:40:01 10° 23° (NNE) 2,706 6.0 -11.4°
Sets 22:42:41 0° 16° (NNE) 3,664 6.8 -11.9°
